Location: 81360 Arifat, France
(43.7204°N, 2.3408°E)
Time: 00:32:24
(UTC+01:00)

Courier 1B - Pass Details

Date: 10 December 2025
Orbit: 962 x 1208 km, 28.3° (Epoch: 15 January)

Event Time Altitude Azimuth Distance (km) Brightness Sun altitude
Exits shadow 04:27:46 10° 154° (SSE) 2,711 10.0 -39.8°
Drops below altitude 10° 04:27:52 10° 153° (SSE) 2,735 10.0 -39.8°
Sets 04:31:34 0° 134° (SE) 3,718 11.0 -39.1°
